map of YYQ home
Great Circle Mapper logo
YYQ - Airport
Location
City:  Churchill, Manitoba, Canada
ICAO / IATA:CYYQ / YYQ

Details
Type:Airport (Airfield)
Use:Public/Civil
Latitude:5844'21"N (58.739167)
Longitude:9403'54"W (-94.064999)
Datum:WGS 1984
Elevation:94 ft (29 m)
Runways:2
Longest:9200 × 160 ft (2804 × 49 m), paved

Time
Time Zone:UTC-6 (DST-5)
Local Time:

Weather
METAR:CYYQ 251300Z 33008KT 2SM -RA BR OVC004 03/03 A2940 RMK FG4ST4 SLP956
TAF:CYYQ 251138Z 2512/2612 35006KT 1SM BR OVC003
TEMPO 2512/2520 3SM -RA BR OVC006
FM252000 35015KT 1/2SM -SN FG OVC002
TEMPO 2520/2601 4SM -SN BR OVC004
FM260100 34020G30KT 6SM -SN OVC010
TEMPO 2601/2612 2SM -SN BR OVC006
BECMG 2608/2610 33015KT
RMK NXT FCST BY 251800Z

Related Locations
Nearby:
Farthest:YWKS: 11462 mi / 18447 km
Wilkins Runway (Casey), Upper Peterson Glacier, AQ

Find:

   beyond  
but within

Other Information
Maps:
NOTAMs:
Links:
Sources:

  
flag of Canada
flag of Manitoba
  

Airport Diagram

Airport diagram for YYQ

Airport diagram PDF

Sectional Chart

Flight Planning
at skyvector.com

Satellite Image

Google Maps Satellite View

 

Copyright © 2004-2014 Karl L. Swartz. All rights reserved.
The Great Circle Mapper name and logo are trademarks of the Great Circle Mapper.
All other trademarks mentioned herein belong to their respective owners.
Please see credits for attibutions and further copyright information.

  Follow gcmap on Facebook Follow gcmap on Twitter

hCard Microformat

Geo Microformat